Lapse_Rate
6.3 6.5 6.5 6.5 6.5 6.5 6.5 6.5 6.5 6.5 6.5 6.5 6.5 6.5 6.5 6.7 6.6 6.4 5.5 4.2 3.6 4.6 4.4 3.5 2.7 1.8 1.3 1.4 1.7 1.7 1.8 2.1 1.5 1.5 1.6 1.5 1.0 0.6 -0.1 -0.4 -1.5 -2.2 -0.3 -0.1
6.5 6.5 6.5 6.5 6.5 6.5 6.5 6.5 6.5 6.5 6.5 6.5 6.5 6.5 6.5 6.5 6.6 6.6 6.0 5.5 4.6 4.5 4.9 4.4 3.4 3.0 2.4 1.7 1.4 1.9 2.5 2.1 1.9 1.7 1.6 1.8 1.1 0.9 0.6 0.5 1.3 1.1 1.1 1.2
6.5 6.5 6.5 6.5 6.5 6.5 6.5 6.5 6.5 6.5 6.5 6.5 6.5 6.5 6.5 6.5 6.5 6.8 6.1 5.7 5.1 4.4 4.1 4.7 3.9 3.2 1.7 1.9 1.3 2.1 2.3 2.4 2.3 2.0 1.2 0.8 1.1 1.4 1.2 1.3 0.2 1.2 1.0 0.9
6.5 6.5 6.5 6.5 6.5 6.5 6.5 6.5 6.5 6.5 6.5 6.5 6.5 6.5 6.5 6.5 6.5 6.5 5.6 4.8 4.6 4.1 3.7 4.1 4.6 1.0 1.9 1.8 1.5 1.6 1.8 2.7 2.8 2.4 1.9 2.0 1.8 1.3 1.0 0.8 0.8 0.6 0.2 1.0
6.5 6.5 6.5 6.5 6.5 6.5 6.5 6.5 6.5 6.5 6.5 6.5 6.5 6.5 6.5 6.5 6.5 6.5 5.2 5.8 5.1 4.7 4.5 3.5 3.6 2.0 1.6 -0.9 -0.6 1.0 1.3 1.1 1.1 2.1 2.4 1.6 1.3 1.1 0.9 0.7 0.2 -0.4 -0.5 -0.6
6.5 6.5 6.5 6.5 6.5 6.5 6.5 6.5 6.5 6.5 6.5 6.5 6.5 6.5 6.5 6.5 6.5 6.5 5.5 5.5 5.9 4.6 4.3 4.2 3.5 2.4 0.2 -1.8 -1.9 0.5 0.2 0.4 -0.4 0.4 1.8 2.3 1.6 0.7 0.6 0.7 1.1 0.7 0.2 -0.6
6.5 6.5 6.5 6.5 6.5 6.5 6.5 6.5 6.5 6.5 6.5 6.5 6.5 6.5 6.5 6.5 6.5 6.4 5.7 5.0 5.1 4.5 4.0 3.6 4.0 2.9 1.2 -0.5 -1.5 -1.5 -0.5 -1.1 -2.4 -1.4 0.4 1.4 2.3 1.9 1.4 1.0 0.8 0.6 0.6 0.4
6.5 6.5 6.5 6.5 6.5 6.5 6.5 6.5 6.5 6.5 6.5 6.5 6.5 6.5 6.5 6.5 6.4 5.4 6.7 5.6 5.6 6.2 6.4 5.3 4.5 3.0 1.7 0.8 -0.6 -2.0 -2.3 -2.3 -2.0 -2.7 -1.1 0.1 0.8 1.2 1.2 1.2 0.6 0.6 0.6 0.4
6.5 6.5 6.5 6.5 6.5 6.5 6.5 6.5 6.5 6.5 6.5 6.5 6.5 6.5 6.5 6.5 6.5 6.3 6.6 6.6 5.1 7.0 7.2 6.2 5.8 4.9 3.3 1.6 0.2 -1.3 -2.4 -3.4 -3.4 -2.3 -2.2 -0.6 0.6 0.8 1.3 1.5 1.1 0.7 1.0 1.7
6.5 6.5 6.5 6.5 6.5 6.5 6.5 6.5 6.5 6.5 6.5 6.5 6.5 6.5 6.5 6.5 6.5 6.5 6.5 5.2 5.1 5.1 7.0 7.1 6.7 5.6 4.4 0.5 -1.0 -0.8 -2.7 -3.1 -4.0 -4.0 -3.7 -1.5 -0.7 1.0 0.9 1.0 1.5 1.5 1.4 1.4
6.5 6.5 6.5 6.5 6.5 6.5 6.5 6.5 6.5 6.5 6.5 6.5 6.5 6.5 6.5 6.5 6.5 6.5 6.3 6.2 5.2 4.8 5.3 6.4 6.9 5.4 4.6 2.9 -0.3 -0.7 -1.1 -1.0 -1.9 -4.3 -4.5 -3.2 -1.7 0.7 1.6 1.4 1.1 1.2 1.4 1.2
6.5 6.5 6.5 6.5 6.5 6.5 6.5 6.5 6.5 6.5 6.5 6.5 6.5 6.5 6.5 6.5 6.1 6.4 5.9 6.2 3.6 3.6 3.8 4.8 6.3 6.4 6.6 4.1 1.7 -0.4 -0.2 -0.4 -1.4 -0.8 -2.3 -3.4 -3.9 -2.1 0.4 1.8 2.0 1.7 1.3 1.6
6.5 6.5 6.5 6.5 6.5 6.5 6.5 6.5 6.5 6.5 6.5 6.5 6.5 6.5 6.5 6.2 5.9 4.9 4.0 2.4 1.5 3.8 3.0 2.3 4.0 4.9 4.4 4.9 5.4 4.1 3.0 2.1 0.7 -0.5 -0.7 -1.1 -2.2 -3.0 -2.6 -1.1 0.5 1.6 1.6 1.5
6.0 6.5 6.5 6.5 6.5 6.5 6.5 6.5 6.5 6.5 6.5 6.5 6.5 6.5 6.5 6.5 6.5 5.7 3.6 2.3 0.7 2.7 2.6 2.1 0.7 -0.2 3.1 4.2 4.4 4.6 5.1 3.1 2.6 1.9 1.1 1.0 0.9 0.7 0.2 -0.9 -0.6 -1.0 0.3 0.0
6.5 6.5 6.5 6.5 6.5 6.5 6.5 6.5 6.5 6.5 6.5 6.5 6.5 6.5 6.5 6.5 6.5 4.5 3.4 4.5 6.1 6.0 6.3 4.9 2.8 0.8 -0.7 2.0 2.6 3.4 4.3 4.9 3.8 3.2 1.1 1.6 -0.4 -1.7 -2.1 -1.6 -0.6 -0.3 -0.2 -0.8
6.5 6.5 6.5 6.5 6.5 6.5 6.5 6.5 6.5 6.5 6.5 6.5 6.5 6.5 6.5 4.6 1.5 2.1 3.6 5.1 6.3 6.6 7.1 6.8 6.2 5.5 4.3 1.5 2.1 2.6 2.2 2.3 2.6 3.4 4.1 3.0 0.8 -1.9 -0.7 -1.5 -1.9 -2.4 -0.8 -2.4
6.5 6.5 6.5 6.5 6.5 6.5 6.5 6.5 6.5 6.5 6.5 6.5 6.5 6.5 6.3 6.3 5.1 2.8 1.8 -0.0 4.4 5.8 5.9 6.1 5.7 5.5 5.3 3.9 4.4 1.8 2.1 0.9 0.7 0.9 1.8 2.8 1.3 0.7 -1.5 -2.6 -4.4 -3.1 -1.5 -2.6
6.5 6.5 6.5 6.5 6.5 6.5 6.5 6.5 6.5 6.5 6.5 6.5 6.5 6.5 5.9 4.3 1.5 1.2 -0.9 0.7 1.3 3.2 5.2 5.6 4.9 5.1 4.9 4.7 4.4 3.1 3.0 2.7 0.3 0.3 0.9 0.7 1.6 2.3 1.1 -2.0 -3.3 -4.1 -4.5 -2.3
6.4 6.5 6.5 6.5 6.5 6.5 6.5 6.5 6.5 6.5 6.5 6.5 6.5 6.5 6.0 4.2 2.9 3.0 5.7 5.0 5.4 5.2 3.3 3.0 4.2 4.9 4.8 4.6 4.4 4.2 4.1 3.7 3.3 2.8 1.6 1.8 0.0 0.7 0.7 1.0 1.2 -1.6 -4.3 -3.9
6.5 6.5 6.5 6.5 6.5 6.5 6.5 6.5 6.1 6.3 6.5 6.2 6.0 5.6 5.4 5.6 6.5 6.5 4.0 4.5 4.8 4.6 4.4 4.2 4.1 4.4 4.3 4.3 4.4 4.3 4.5 4.4 4.4 4.7 4.2 3.1 2.2 0.1 0.4 1.0 0.9 -0.4 -2.4 -0.9
6.5 6.5 6.5 6.5 6.5 6.5 6.5 6.5 6.4 6.5 6.5 6.2 5.2 4.3 2.9 6.0 4.3 4.2 4.3 4.9 4.5 4.5 4.1 4.9 3.7 3.8 3.9 4.3 4.3 4.4 4.7 4.6 5.6 5.6 5.5 5.3 4.2 2.3 1.2 0.9 0.0 -0.7 -0.8 0.2
6.5 6.5 6.5 6.5 6.5 6.5 6.3 5.9 6.5 5.1 3.3 5.7 4.3 3.4 3.0 4.7 4.4 4.3 4.8 5.2 5.2 4.3 4.3 4.4 3.7 3.6 4.0 4.6 4.5 4.3 4.1 5.3 5.2 5.3 5.6 5.4 4.7 4.9 5.5 0.9 0.3 -0.7 0.1 0.7
6.5 6.5 6.5 6.5 6.5 5.5 3.1 2.8 -0.8 -2.9 0.2 1.6 1.1 3.7 2.2 1.6 3.2 4.3 4.0 3.4 3.8 3.9 4.0 3.9 3.5 3.3 3.2 3.8 4.3 3.9 4.3 4.5 4.4 4.0 4.0 4.2 4.7 5.6 5.9 3.5 2.4 0.8 -0.3 1.5
6.5 3.3 6.5 6.5 5.8 3.5 0.7 0.1 0.3 -3.3 -1.5 -2.2 -0.9 0.4 1.9 0.8 1.9 1.9 2.3 2.0 2.4 3.3 3.1 3.6 3.3 3.1 2.7 3.1 4.1 3.6 3.9 4.8 4.1 3.6 3.6 4.0 4.3 4.7 4.5 5.8 5.7 3.2 2.5 2.8
5.4 5.0 6.5 6.5 5.2 3.0 3.0 1.2 -1.6 -1.9 -1.9 -1.1 -0.6 -0.1 0.7 -1.8 -0.5 -2.0 -0.8 -0.2 -0.3 0.4 1.3 2.0 2.0 2.3 2.3 2.8 2.6 2.9 4.6 4.3 4.1 4.4 4.7 4.9 5.6 5.0 5.1 5.8 5.6 4.8 4.4 5.3
0.2 6.5 6.5 6.5 1.3 3.6 3.7 -0.6 -3.8 -1.1 1.2 2.3 1.4 0.8 0.1 -1.4 -0.9 -3.8 -1.3 -2.0 -4.3 -1.6 -0.9 0.8 1.2 0.9 1.6 1.5 1.8 2.7 3.5 4.0 4.5 4.8 5.8 5.9 6.5 5.6 6.2 6.2 5.8 7.3 8.8 9.1
Wind_Speed
1 2 6 9 5 3 4 3 5 1 1 6 10 9 10 9 13 13 11 11 10 7 5 5 5 6 7 6 6 5 6 4 3 2 4 3 2 3 3 7 7 8 6 6
3 5 6 4 5 6 6 4 3 1 3 6 4 8 7 10 7 8 8 9 9 8 7 5 3 3 3 5 5 4 3 3 2 1 1 2 4 3 3 6 8 9 7 5
7 2 2 3 1 4 4 6 5 5 7 8 11 3 2 3 5 7 9 5 8 6 6 5 0 1 2 4 5 4 2 2 2 3 3 3 4 5 3 2 3 4 7 6
2 3 2 3 2 0 4 2 4 8 5 4 2 4 3 1 6 7 7 8 7 7 6 5 3 2 4 4 3 4 4 3 2 1 3 3 1 2 1 2 3 5 7 5
3 4 4 2 2 1 2 0 3 3 5 3 2 3 2 2 3 5 7 7 7 7 6 6 6 4 4 2 4 4 5 5 5 3 1 2 4 2 2 2 4 4 6 8
2 2 3 2 2 2 0 4 6 4 3 1 5 5 3 3 4 2 4 6 7 8 8 7 5 3 3 3 3 5 6 4 5 5 3 3 5 5 4 2 3 3 2 4
2 2 4 4 0 3 5 3 2 1 1 5 3 3 4 1 2 3 1 6 7 6 7 8 3 4 5 4 3 3 5 4 5 5 6 4 3 3 4 3 2 3 2 2
3 3 4 7 2 1 1 4 4 6 4 3 2 4 3 3 5 1 3 2 6 8 6 9 6 5 4 4 3 4 4 4 5 5 6 5 5 3 3 2 3 3 2 2
2 1 1 1 3 3 3 2 1 1 2 3 3 3 2 5 5 5 6 7 6 7 7 7 7 4 4 3 1 3 4 3 4 4 4 5 4 5 3 3 3 2 2 2
3 2 2 1 0 3 1 2 2 0 3 4 1 2 3 1 2 4 5 4 7 6 7 7 6 6 3 2 1 2 3 3 0 3 3 3 3 3 3 2 3 2 2 3
2 3 5 3 4 1 4 2 3 1 0 3 3 4 4 5 3 3 4 6 4 3 5 6 5 4 4 4 3 1 2 2 1 0 1 2 2 3 2 1 0 0 1 2
1 4 1 3 3 2 2 1 1 2 4 1 2 3 1 5 5 2 3 4 2 2 3 4 5 6 5 4 3 3 3 1 3 2 2 2 2 2 2 1 2 3 2 1
2 1 2 6 5 2 4 3 2 2 1 1 2 3 2 4 3 2 2 3 4 3 2 4 5 4 3 4 4 4 3 3 3 2 2 2 3 2 3 3 3 3 3 3
1 2 5 5 6 2 2 3 3 4 3 3 3 3 6 4 3 1 2 4 3 3 3 2 4 4 4 4 3 1 3 3 3 1 2 3 3 4 4 3 4 3 4 3
3 2 1 3 3 3 3 1 2 3 4 4 4 6 7 6 5 4 3 3 0 1 3 1 1 3 4 5 5 5 5 4 2 2 2 4 4 4 4 3 3 3 3 3
3 0 1 2 2 2 1 4 5 4 2 5 4 1 5 1 2 2 4 4 3 1 3 2 2 5 4 3 4 5 6 6 3 3 4 3 3 3 4 3 4 3 4 3
2 2 2 2 1 2 3 4 2 1 2 6 3 6 5 2 4 3 4 2 2 3 2 2 4 3 4 5 5 5 6 6 4 4 4 4 3 4 4 4 3 5 5 2
2 2 2 1 3 2 4 4 3 4 3 3 2 3 6 6 3 2 3 4 4 3 2 3 2 4 4 5 6 5 6 6 4 4 4 4 3 4 3 3 4 3 3 5
2 3 2 2 2 3 2 1 3 4 1 6 6 6 5 3 3 3 2 1 2 1 1 2 2 2 4 5 6 5 6 6 5 5 5 5 4 5 3 4 5 4 3 4
4 4 3 2 2 1 4 2 3 3 2 6 6 5 6 5 1 4 2 2 2 2 2 4 4 3 4 5 5 5 5 5 6 5 6 5 5 4 4 5 5 4 3 4
2 2 2 1 1 4 2 1 0 4 5 2 5 5 5 4 4 2 3 3 1 2 5 5 4 4 5 5 5 5 5 5 5 6 7 6 5 4 5 4 3 3 3 3
1 1 1 1 2 2 2 3 5 4 2 3 3 3 3 3 3 4 3 3 3 4 5 5 5 5 5 5 4 6 6 6 7 8 7 6 6 6 6 4 4 3 3 4
2 3 2 3 1 2 2 5 3 3 4 3 3 2 3 2 3 3 4 3 3 4 4 4 5 6 6 5 4 6 6 8 7 7 8 8 9 9 8 5 6 3 4 4
3 1 1 5 4 4 4 4 3 4 4 4 3 4 3 4 4 5 5 4 3 4 5 4 4 5 7 5 8 6 8 7 6 7 8 8 7 9 7 6 5 4 4 5
3 2 2 4 4 7 2 4 3 2 2 2 2 3 4 3 5 4 4 4 5 5 4 3 5 5 7 6 7 7 8 6 7 7 7 8 8 7 7 8 6 6 6 8
1 3 2 3 5 4 8 5 3 4 6 7 5 3 3 4 7 3 6 5 3 6 3 5 5 5 7 6 8 8 7 6 6 7 7 6 6 6 7 7 8 16 19 20
Wind_Direction
218 124 210 213 204 167 155 176 180 232 134 83 96 80 31 25 48 45 41 39 35 38 54 66 95 104 103 98 107 117 126 138 125 123 129 133 100 87 103 83 76 61 51 54
18 234 224 216 211 207 225 228 180 111 26 96 97 78 55 36 44 46 35 37 30 32 41 51 69 93 112 132 115 106 127 138 169 167 163 130 139 85 87 82 57 70 46 48
191 233 180 195 227 186 182 195 191 154 103 61 121 64 62 60 47 44 43 36 36 25 10 3 111 239 144 145 143 132 98 76 90 107 88 66 86 113 121 128 89 70 89 38
155 341 209 152 158 74 198 248 169 149 130 179 133 219 216 89 45 31 17 26 16 7 355 340 352 262 206 192 157 133 120 79 46 44 112 134 154 129 135 138 134 119 89 90
269 12 19 102 90 316 174 235 132 82 94 101 239 104 291 178 4 359 346 12 16 357 345 329 312 242 216 194 149 123 92 58 29 3 219 177 129 115 104 106 105 87 67 62
73 56 49 340 343 21 190 85 51 57 89 19 213 148 215 191 191 347 349 357 4 352 341 331 319 145 116 86 78 107 99 58 31 57 58 112 133 135 127 116 102 90 69 59
31 27 346 18 8 18 55 79 42 97 192 214 316 99 234 187 139 126 18 351 353 348 350 350 7 95 98 97 89 88 92 58 31 52 71 55 92 100 131 124 108 101 71 40
353 312 4 339 63 297 72 155 166 182 193 199 21 175 159 116 87 67 60 67 9 1 20 12 46 70 73 81 76 81 82 72 48 44 43 64 70 63 61 75 95 98 85 71
5 93 49 304 4 350 269 210 337 52 167 101 111 74 77 111 82 44 29 43 14 19 22 23 25 51 46 48 61 122 98 60 47 47 46 44 62 82 80 70 87 102 96 126
262 350 332 356 66 33 88 191 110 285 207 199 23 222 207 121 90 49 18 32 39 12 28 34 23 25 26 52 360 82 107 127 42 26 35 38 27 59 74 66 73 91 77 63
133 100 298 358 17 277 355 35 18 117 283 169 149 254 214 171 122 56 14 59 39 24 21 23 46 35 17 20 26 74 108 141 166 342 344 20 357 12 25 80 92 7 45 42
34 145 4 248 255 190 136 127 113 122 285 31 118 256 215 129 117 104 34 11 353 65 19 21 33 43 44 48 15 338 325 300 242 224 201 239 280 320 321 284 230 211 210 234
320 39 24 349 353 13 76 341 100 62 69 50 138 229 204 120 118 349 37 347 329 314 16 10 26 26 40 45 32 24 13 318 285 218 221 248 251 248 253 264 280 254 207 214
56 114 150 188 215 166 14 354 60 114 111 169 195 160 164 165 167 283 292 296 309 250 294 351 32 357 356 342 340 43 356 331 323 269 241 254 261 257 257 244 248 242 232 210
84 133 111 255 247 146 171 161 102 97 203 135 207 154 180 176 186 223 241 264 305 31 187 135 30 348 337 357 352 339 307 284 234 275 292 280 273 270 278 280 265 251 229 220
353 301 126 308 271 181 108 125 102 102 161 76 111 11 198 89 270 273 252 260 213 167 145 127 13 346 353 352 338 341 327 300 274 249 266 271 265 264 259 262 256 269 266 241
54 74 54 282 316 28 329 217 159 150 193 143 151 213 152 161 219 234 266 261 209 108 82 347 345 351 352 343 337 332 317 314 305 259 254 265 255 264 253 243 239 239 240 207
29 66 86 224 22 20 249 272 179 139 198 198 119 157 172 181 206 175 209 152 197 239 296 343 3 341 333 335 333 326 329 327 337 315 305 296 287 263 246 219 239 243 214 221
89 101 44 112 185 293 340 216 153 130 239 189 159 168 174 143 86 294 152 112 311 351 246 236 300 304 320 330 331 333 330 329 338 327 319 311 301 289 268 241 246 232 212 225
97 87 110 60 109 199 247 282 104 104 329 199 172 170 159 138 101 258 152 309 301 9 344 330 333 322 335 328 330 329 319 327 320 319 313 306 304 286 273 259 249 214 199 230
7 10 133 255 214 293 287 177 69 73 242 121 142 148 158 174 197 165 318 285 52 334 329 323 341 321 309 315 325 313 305 303 301 324 312 306 302 306 277 270 223 226 216 215
138 90 296 67 43 330 19 358 128 222 322 118 123 179 187 201 288 287 256 229 304 311 317 321 319 313 308 313 322 310 296 303 314 307 304 307 307 301 297 281 276 251 212 223
40 158 221 169 226 300 291 197 258 179 173 223 166 172 156 227 249 256 259 266 265 291 296 303 301 305 307 303 304 295 299 307 304 305 297 293 290 287 285 278 265 252 217 223
2 54 124 31 306 269 286 288 243 194 211 204 202 179 178 229 251 258 269 265 270 279 289 285 293 286 290 295 305 286 288 297 294 292 291 292 288 285 267 273 266 234 218 225
208 9 319 271 298 308 282 245 243 272 283 225 209 195 233 213 253 230 257 265 260 266 269 268 273 282 280 286 286 283 291 287 286 286 286 287 292 288 285 276 267 255 233 225
182 202 96 254 249 203 267 268 221 214 233 229 212 248 233 213 240 218 261 245 241 266 267 279 275 266 276 279 282 285 278 267 274 280 289 287 290 285 286 285 284 279 279 269